Location: *
(40.9752°S, 98.4753°E)
Time: 22:45:16
(UTC+00:00)

Daily predictions for brighter satellites

Satellite Brightness Start Highest point End
(mag) Time Altitude Azimuth Time Altitude Azimuth Time Altitude Azimuth
Cosmos 2237 Rocket 3.4 12:02:04 10° SW 12:07:27 43° WNW 12:12:46 10° N
ATLAS 3B R/B 2.8 12:02:49 10° SSW 12:08:53 42° SE 12:09:12 42° SE
SMAP 3.6 12:06:08 11° S 12:10:36 59° WSW 12:15:12 10° NNW
Lacrosse 4 Rocket 2.7 12:09:57 10° N 12:12:26 30° NNE 12:12:26 30° NNE
Lacrosse 5 3.9 12:18:06 10° WSW 12:21:36 18° SSW 12:22:54 17° S
ADEOS 3.4 12:26:56 75° ENE 12:26:56 75° ENE 12:32:05 10° N
SL-16 R/B 2.1 12:21:18 10° SSW 12:27:05 86° ESE 12:28:45 49° NNE
Cosmos 2297 Rocket 4.2 12:22:42 10° WNW 12:27:13 24° SW 12:31:48 10° S
ATLAS 2AS CENTAUR R/B 3.3 12:21:41 10° WNW 12:27:57 48° SW 12:31:37 25° SSE
Cosmos 1741 Rocket 4.0 12:24:01 10° SSW 12:29:20 78° WNW 12:32:08 28° N
Meteor 1-20 Rocket 4.2 12:24:34 10° N 12:29:18 63° NNE 12:29:18 63° NNE
Meteor 1-27 Rocket 3.8 12:27:27 10° S 12:40:02 - NNE 12:32:05 61° S
Cosmos 2184 Rocket 3.9 12:27:10 10° S 12:33:29 85° E 12:39:49 10° N
Cosmos 1331 Rocket 4.4 12:31:56 10° NNW 12:37:03 59° WSW 12:38:13 47° SSW
Cosmos 2219 4.4 12:40:17 10° NW 12:45:35 38° WSW 12:48:09 25° S
Cosmos 2227 Rocket 4.2 12:50:18 10° WNW 12:54:53 24° SW 12:58:01 16° SSW
FALCON 9 R/B 3.4 12:42:07 10° WNW 12:58:52 52° N 12:59:33 51° NNE
USA 281 3.6 13:10:49 54° SSW 13:10:49 54° SSW 13:15:46 10° SSW
Cosmos 2263 Rocket 3.3 13:11:40 10° NW 13:15:43 40° WNW 13:15:43 40° WNW
ATLAS 5 CENTAUR R/B 3.8 13:43:03 10° NW 13:48:17 42° W 13:48:17 42° W
ATLAS 3B R/B 4.4 13:53:40 10° SW 13:56:29 24° WSW 13:56:29 24° WSW
Atlas Centaur 2 4.5 21:28:33 12° NE 21:28:33 12° NE 21:29:01 10° NE
USA 234 3.8 21:43:21 10° SE 21:48:23 46° S 21:48:23 46° S
FengYun 1-2 T 4.2 21:59:25 10° NNE 22:04:54 83° NNE 22:04:54 83° NNE
Gbstr 26 Del rocket 4.0 22:10:47 45° NE 22:10:47 45° NE 22:14:21 10° NE
Cosmos 2263 Rocket 2.2 22:09:51 66° SSE 22:10:33 75° ESE 22:16:08 10° NNE
Cosmos 2278 3.9 22:07:46 23° N 22:11:22 68° ENE 22:17:06 10° SSE
ISS -0.7 22:13:30 12° SE 22:13:30 12° SE 22:14:06 10° SE
ARGOS 3.5 22:08:43 10° NNE 22:14:06 64° ESE 22:17:35 23° S
Lacrosse 4 Rocket 3.5 22:19:02 19° N 22:19:02 19° N 22:20:19 10° N
Cosmos 1110 Rocket 3.9 22:17:16 73° N 22:17:16 73° N 22:21:57 10° NNE
ATLAS CENTAUR R/B 3.4 22:21:01 21° N 22:21:01 21° N 22:22:44 10° N
Cosmos 1980 Rocket 3.3 22:22:22 30° S 22:22:22 30° S 22:25:30 10° SSE
Cosmos 1452 Rocket 4.1 22:21:28 43° NNW 22:21:28 43° NNW 22:25:12 10° N
CZ-2D R/B 4.1 22:16:31 10° NNE 22:19:58 50° E 22:19:58 50° E
SL-06 R/B (2) 4.5 22:23:06 59° W 22:23:34 61° NW 22:36:32 10° NNE
CZ-2C R/B 3.6 22:25:53 12° NNE 22:25:53 12° NNE 22:26:28 10° NNE
NOAA 12 4.1 22:20:09 10° N 22:25:06 63° NW 22:25:06 63° NW
Cosmos 2082 3.7 22:28:52 56° WNW 22:28:52 56° WNW 22:34:05 10° N
Cosmos 2151 3.0 22:30:07 72° N 22:30:07 72° N 22:33:58 10° N
SL-08 RB Rocket 3.9 22:29:29 10° NNE 22:33:56 67° ESE 22:36:39 24° S
Meteor 1-31 Rocket 2.8 22:31:07 10° NNE 22:34:55 76° ESE 22:34:59 75° ESE
CZ-4B R/B 3.6 22:30:25 10° NNE 22:35:36 78° ESE 22:39:23 18° S
ATLAS 5 CENTAUR R/B 3.7 22:44:16 14° NNW 22:44:16 14° NNW 22:45:07 10° NNW
Exosat Rocket 4.1 22:39:28 18° S 22:43:15 62° ESE 22:49:20 10° NNE
Cosmos 2315 Rocket 3.9 22:40:31 10° S 22:46:49 88° W 22:53:04 10° N
SeaSat 1 2.4 22:45:09 10° NNE 22:50:06 89° ESE 22:53:03 25° SSW
H-2A R/B 3.7 22:45:43 10° NNW 22:47:31 19° NW 22:47:31 19° NW
CZ-4B R/B 3.7 22:46:25 10° N 22:50:25 65° WNW 22:50:47 61° WSW
Cosmos 1818 3.9 22:51:28 41° WSW 22:51:59 42° SW 22:57:08 10° SSE
Cosmos 44 3.7 22:49:54 26° S 22:52:07 51° SE 22:56:17 10° NE
CENTAUR R/B 4.3 22:44:59 10° N 22:52:52 42° ENE 22:59:41 10° SE
Cosmos 1076 Rocket 3.7 22:54:00 48° W 22:54:07 48° W 22:58:19 10° NNW
Timation 2 Rocket 4.1 22:50:22 15° SSW 22:55:29 75° ESE 23:01:47 10° NNE
CORIOLIS 4.2 22:50:40 10° NNE 22:56:03 83° ESE 23:01:32 10° SSW
Cosmos 1655 Rocket 4.0 22:51:40 10° NNW 22:57:46 55° WSW 23:03:57 10° S
USA 305 3.9 23:04:36 25° NW 23:04:36 25° NW 23:07:33 10° N
Cosmos 1302 Rocket 4.0 23:02:42 18° SSW 23:06:41 70° WNW 23:11:56 10° N
SL-16 R/B 2.1 23:06:02 10° NNW 23:11:43 69° WSW 23:17:26 10° SSE
Cosmos 2227 4.2 23:07:49 15° SSW 23:12:37 72° WNW 23:18:20 10° NNE
SMAP 3.1 23:08:34 10° N 23:13:11 60° W 23:17:53 10° SSW
Atlas Centaur 2 3.6 23:10:58 13° NW 23:13:51 22° N 23:17:51 10° NE
Cosmos 2322 Rocket 2.2 23:09:20 10° NNW 23:14:57 86° ENE 23:20:39 10° SSE
SL-4 R/B 2.4 23:12:13 10° NW 23:16:34 71° NE 23:21:12 10° ESE
Cosmos-2242 3.2 23:17:43 10° NNW 23:21:57 50° W 23:26:18 10° S
Cosmos 2360 Rocket 2.6 23:16:22 10° NNW 23:21:59 69° ENE 23:27:40 10° SSE
Cosmos 1812 Rocket 3.7 23:20:49 10° NNW 23:25:02 49° W 23:29:20 10° S
COSMO-SKYMED 1 3.1 23:21:55 10° SSE 23:26:19 64° E 23:30:39 10° N
Cosmos 1812 3.2 23:23:10 10° N 23:26:53 62° E 23:30:39 10° SSE
Genesis I 4.1 23:29:09 23° W 23:30:31 29° WNW 23:33:50 10° N
Cosmos 1544 2.8 23:28:18 10° S 23:31:44 77° W 23:35:08 10° N
USA 234 4.4 23:26:36 10° SE 23:31:48 26° SSW 23:35:44 15° WSW
Cosmos 1269 Rocket 4.0 23:27:02 10° NNW 23:32:18 61° WSW 23:37:38 10° SSE
Cosmos 1844 Rocket 2.9 23:26:42 10° SSW 23:32:20 72° ESE 23:37:54 10° NNE
Cosmos 2333 Rocket 2.8 23:29:10 10° N 23:34:43 61° ENE 23:40:21 10° SSE
Cosmos 1666 2.5 23:36:10 10° SSW 23:39:53 71° W 23:43:31 10° N
CZ-4 R/B 4.1 23:37:18 10° ENE 23:39:57 17° ESE 23:42:40 10° SSE
DMSP B5D2-2 4.3 23:35:10 10° S 23:40:11 45° WSW 23:45:10 10° NW
ADEOS 3.6 23:39:32 10° N 23:44:46 72° WNW 23:50:04 10° SSW
Cosmos 2219 Rocket 3.3 23:40:37 10° N 23:45:58 49° ENE 23:51:24 10° SE
USA 81 4.5 23:42:18 10° S 23:47:39 68° E 23:52:54 10° NNE
ISS -2.9 23:46:23 13° SW 23:49:16 45° SSE 23:52:33 10° ENE
Cosmos 2263 Rocket 3.8 23:51:37 12° WSW 23:53:43 14° W 23:56:32 10° NW
